AirNav   Everest Fuels
 
 1021 users online  

X04 Orlando Apopka Airport
Apopka, Florida, USA

GOING TO APOPKA?


FAA INFORMATION EFFECTIVE 30 JANUARY 2020

Location

FAA Identifier: X04
Lat/Long: 28-42-26.9079N 081-34-55.0722W
28-42.448465N 081-34.917870W
28.7074744,-81.5819645
(estimated)
Elevation: 150 ft. / 46 m (estimated)
Variation: 06W (2015)
From city: 4 miles NW of APOPKA, FL
Time zone: UTC -5 (UTC -4 during Daylight Saving Time)
Zip code: 32798

Airport Operations

Airport use: Open to the public
Control tower: no
ARTCC: JACKSONVILLE CENTER
FSS: SAINT PETERSBURG FLIGHT SERVICE STATION
NOTAMs facility: PIE (NOTAM-D service available)
Attendance: JAN-DEC 0800-1800
Wind indicator: lighted
Segmented circle: yes
Lights: PAPI 15/33 ON CONT DURG DALGT. AFTER SS, ACTVT PAPI 15/33 - CTAF.
Beacon: white-green (lighted land airport)
Operates sunset to sunrise.

Airport Communications

CTAF/UNICOM: 123.05
ORLANDO APPROACH: 135.3
ORLANDO DEPARTURE: 135.3
COSTR STAR: 128.375
GOOFY STAR: 124.8 128.375
WX ASOS at LEE (14 nm NW): 134.325 (352-787-1565)
WX ASOS at ORL (16 nm SE): PHONE 407-658-6753
WX ASOS at SFB (19 nm E): PHONE 407-321-9384

Nearby radio navigation aids

VOR radial/distance  VOR name  Freq  Var
ORLr307/16.3ORLANDO VORTAC112.2000E

Airport Services

Fuel available: 100LL JET-A
Parking: hangars and tiedowns
Airframe service: MAJOR
Powerplant service: MAJOR
Bottled oxygen: LOW
Bulk oxygen: LOW

Runway Information

Runway 15/33

Dimensions: 3987 x 60 ft. / 1215 x 18 m
Surface: asphalt, in good condition
Gradient: NW
RUNWAY 15  RUNWAY 33
Latitude: 28-42.728160N28-42.168770N
Longitude: 081-35.114220W081-34.721520W
Elevation: 142.2 ft.125.2 ft.
Traffic pattern: rightleft
Displaced threshold: 943 ft.no
Declared distances: TORA:3987 TODA:3987 ASDA:3987 LDA:3044TODA:3987 ASDA:3987 LDA:3987
Markings: basic, in good conditionbasic, in good condition
Visual slope indicator: 2-light PAPI on left (3.50 degrees glide path)2-light PAPI on left (3.00 degrees glide path)
Touchdown point: yes, no lightsyes, no lights
Obstructions: 10 ft. berm, 200 ft. from runway, 125 ft. left of centerline, 1:1 slope to clear
RWY 15 HAS 10 FT BERM 200 FT FM RWY END 125 FT LEFT.
26 ft. tree, 1208 ft. from runway, 41 ft. right of centerline, 40:1 slope to clear

Airport Ownership and Management from official FAA records

Ownership: Privately-owned
Owner: ORLANDO APOPKA ARPT CONDO ASSOC.
882 JACKSON AVE., REGISTERED AGENT
WINTER PARK, FL 32789
Phone 407-647-2622
Manager: BOB JACKSON
1321 APOPKA AIRPORT RD HANGAR 37
APOPKA, FL 32712
Phone 407-308-5904

Airport Operational Statistics

Aircraft based on the field: 127
Single engine airplanes: 90
Multi engine airplanes: 25
Jet airplanes: 2
Helicopters: 2
Ultralights: 8
    
Aircraft operations: avg 60/day *
75% local general aviation
25% transient general aviation
* for 12-month period ending 17 August 2018

Additional Remarks

STEEP DROPOFF 63' FROM SE END & APRXLY 55' OFF WEST EDGE.
RY 15/33 RR PENETRATES 7:1 TRANS SFC EAST SIDE.
CTC UNICOM OR 407-308-5904 FOR SAFETY BRIEFING.
RY 15/33 CLSD TO TOUCH AND GO LNDGS BY TRANSIENT HELICOPTERS.
FOR CD CTC ORLANDO APCH AT 407-825-3398.

Instrument Procedures

NOTE: All procedures below are presented as PDF files. If you need a reader for these files, you should download the free Adobe Reader.

NOT FOR NAVIGATION. Please procure official charts for flight.
FAA instrument procedures published for use from 30 January 2020 at 0901Z to 27 Feburary 2020 at 0900Z.

 
STARs - Standard Terminal Arrivals
COSTR THREE (RNAV) **CHANGED**   2 pages: [1] [2] (286KB)
GOOFY SEVEN   download (248KB)
 
IAPs - Instrument Approach Procedures
RNAV (GPS)-A   download (191KB)
RNAV (GPS)-B   download (167KB)
NOTE: Special Take-Off Minimums/Departure Procedures apply   download (162KB)

Other nearby airports with instrument procedures:

X23 - Umatilla Municipal Airport (14 nm N)
KLEE - Leesburg International Airport (14 nm NW)
KORL - Executive Airport (16 nm SE)
KSFB - Orlando Sanford International Airport (19 nm E)
KMCO - Orlando International Airport (22 nm SE)
 
Loc | Ops | Rwys | IFR | FBO | Links
Com | Nav | Svcs | Stats | Notes


 
Area around X04 (Orlando Apopka Airport)
 
Road maps at: MapQuest Bing Google
 
Aerial photo
WARNING: Photo may not be current or correct
Aerial photo of X04 (Orlando Apopka Airport)
Photo by Jim Hobart of MacBethPhoto.com
Photo taken 14-Jul-2011
looking northwest.

Do you have a better or more recent aerial photo of Orlando Apopka Airport that you would like to share? If so, please send us your photo.

 
Sectional chart

 
Airport distance calculator
Flying to Orlando Apopka Airport? Find the distance to fly.

From to X04

Sunrise and sunset
Times for 21-Feb-2020
 Local
(UTC-5)
 Zulu
(UTC)
Morning civil twilight06:3611:36
Sunrise07:0012:00
Sunset18:2023:20
Evening civil twilight18:4423:44

Current date and time
Zulu (UTC)  22-Feb-2020 00:35:50
Local (UTC-5)  21-Feb-2020 19:35:50
 
METAR
KLEE 
14nm NW 
220019Z AUTO 01012G21KT 10SM BKN029 OVC041 09/02 A3032 RMK AO2 T00890022
KORL 
16nm SE 
220006Z 01018G24KT 10SM SCT027 OVC055 10/04 A3027 RMK AO2 PK WND 01027/2355 T01000039
KSFB 
20nm E 
220010Z 36016G29KT 10SM OVC030 09/04 A3028 RMK AO2 PK WND 36029/0004 T00940039
KMCO 
22nm SE 
212353Z 35019G29KT 10SM OVC025 10/04 A3026 RMK AO2 PK WND 36030/2328 SLP245 T01000044 10133 20100 53018
KISM 
27nm S 
212356Z 01016G22KT 10SM OVC022 09/05 A3027 RMK AO2 SLP251 6//// T00940050 10133 20094 53017 PNO $
KDED 
27nm NE 
220015Z AUTO 36017KT 10SM SCT030 OVC050 08/03 A3030 RMK AO2
TAF
KLEE 
14nm NW 
220026Z 2200/2224 01012G18KT P6SM SCT030 FM220500 01011KT P6SM SCT025 FM221500 03012KT P6SM SCT035 BKN050
KSFB 
20nm E 
211720Z 2118/2218 36020G28KT P6SM BKN012 OVC020 FM220000 36018G25KT P6SM BKN025 TEMPO 2202/2205 SCT025 FM220500 36011G17KT P6SM SCT025 FM221500 02012G19KT P6SM BKN035 BKN050
NOTAMs
Click for the latest NOTAMs
NOTAMs are issued by the DoD/FAA and will open in a separate window not controlled by AirNav.

 

 
 

FBO, Fuel Providers, and Aircraft Ground Support

  
 Business Name 
 
 Contact 
 
 Services / Description 
 
Fuel Prices
 
Comments
  
City of Apopka 352-455-7405
[web site]
[email]
Aviation fuel

More info about City of Apopka
independent
100LL Jet A
SS $3.50 $2.54 
 Updated 19-Feb-2020
 
   4 read write
SS=Self service
Update Fuel Prices
 

Aviation Businesses, Services, and Facilities

  
 Business Name 
 
 Contact 
 
 Services / Description 
 
Distance
 
Comments
  
Chandelle Properties Team - Arrowsmith Realty 407-712-4071
[web site]
[email]
Hangar leasing / sales

More info about Chandelle Properties Team - Arrowsmith Realty
on airport  
   write
 

Would you like to see your business listed on this page?

 If your business provides an interesting product or service to pilots, flight crews, aircraft, or users of the Orlando Apopka Airport, you should consider listing it here.  To start the listing process, click on the button below
 
Add a business
 

Other Pages about Orlando Apopka Airport

www.orlx04.org
 
Update a link
 
Copyright © AirNav, LLC. All rights reserved. Privacy Policy  Contact